When you browse on this site, cookies collect data to enhance your experience and personalize the content and advertising you see.
Visit our Privacy Policy to learn more. By continuing to use the site, you agree to this use of cookies and data.
  • In Schweiz
  • Länderverzeichnis
  • Für 7 Tage
  • Wassertemperatur
  • Satellitenkarten
  • Wetterkarte
  • Widgets
  • user-avatar
    Anmelden

    Stündliche Wetter Phnom Penh

    Heute, 11 Dezember, Dienstag

    Zeit Temperatur Niederschläge Wind Luftdruck Luftfeuchtigkeit
    00:00 +29°C° 0.1 mm 1 m/S 757 mmHg 78%
    01:00 +28°C° 0 mm 1 m/S 757 mmHg 79%
    02:00 +28°C° 0.1 mm 1 m/S 757 mmHg 80%
    03:00 +28°C° 0.1 mm 1 m/S 757 mmHg 82%
    04:00 +27°C° 0.1 mm 1 m/S 757 mmHg 83%
    05:00 +27°C° 0 mm 2 m/S 757 mmHg 84%
    06:00 +27°C° 0 mm 2 m/S 757 mmHg 84%
    07:00 +27°C° 0 mm 2 m/S 757 mmHg 84%
    08:00 +29°C° 0 mm 3 m/S 757 mmHg 79%
    09:00 +30°C° 0 mm 3 m/S 758 mmHg 73%
    10:00 +31°C° 0 mm 3 m/S 758 mmHg 67%
    11:00 +33°C° 0 mm 3 m/S 757 mmHg 63%
    12:00 +34°C° 0 mm 3 m/S 757 mmHg 59%
    13:00 +35°C° 0 mm 3 m/S 756 mmHg 57%
    14:00 +35°C° 0.5 mm 3 m/S 756 mmHg 58%
    15:00 +35°C° 0.5 mm 2 m/S 756 mmHg 59%
    16:00 +34°C° 0.5 mm 2 m/S 755 mmHg 60%
    17:00 +32°C° 0.9 mm 2 m/S 756 mmHg 66%
    18:00 +31°C° 0.9 mm 1 m/S 756 mmHg 71%
    19:00 +29°C° 0.9 mm 1 m/S 756 mmHg 76%
    20:00 +29°C° 0 mm 1 m/S 757 mmHg 76%
    21:00 +29°C° 0 mm 1 m/S 757 mmHg 77%
    22:00 +29°C° 0 mm 1 m/S 757 mmHg 77%
    23:00 +28°C° 0.1 mm 1 m/S 757 mmHg 79%

    Morgen, 12 Dezember, Mittwoch

    Zeit Temperatur Niederschläge Wind Luftdruck Luftfeuchtigkeit
    00:00 +28°C° 0.1 mm 1 m/S 757 mmHg 81%
    01:00 +28°C° 0.1 mm 1 m/S 757 mmHg 83%
    02:00 +27°C° 0 mm 1 m/S 757 mmHg 83%
    03:00 +27°C° 0 mm 1 m/S 757 mmHg 84%
    04:00 +27°C° 0 mm 2 m/S 757 mmHg 85%
    05:00 +26°C° 0 mm 2 m/S 757 mmHg 85%
    06:00 +26°C° 0 mm 2 m/S 758 mmHg 84%
    07:00 +26°C° 0 mm 3 m/S 758 mmHg 84%
    08:00 +28°C° 0 mm 3 m/S 758 mmHg 78%
    09:00 +29°C° 0 mm 4 m/S 759 mmHg 71%
    10:00 +32°C° 0 mm 5 m/S 759 mmHg 64%
    11:00 +33°C° 0 mm 5 m/S 758 mmHg 60%
    12:00 +34°C° 0 mm 4 m/S 758 mmHg 57%
    13:00 +35°C° 0 mm 4 m/S 757 mmHg 53%
    14:00 +35°C° 0 mm 4 m/S 757 mmHg 53%
    15:00 +35°C° 0 mm 3 m/S 756 mmHg 53%
    16:00 +35°C° 0 mm 3 m/S 755 mmHg 53%
    17:00 +34°C° 0 mm 2 m/S 756 mmHg 56%
    18:00 +32°C° 0 mm 2 m/S 756 mmHg 59%
    19:00 +31°C° 0 mm 1 m/S 757 mmHg 62%
    20:00 +30°C° 0.1 mm 2 m/S 757 mmHg 64%
    21:00 +29°C° 0.1 mm 3 m/S 758 mmHg 66%
    22:00 +29°C° 0.1 mm 4 m/S 758 mmHg 67%
    23:00 +28°C° 0 mm 4 m/S 758 mmHg 68%

    übermorgen, 13 Dezember, Donnerstag

    Zeit Temperatur Niederschläge Wind Luftdruck Luftfeuchtigkeit
    00:00 +27°C° 0 mm 4 m/S 758 mmHg 69%
    01:00 +27°C° 0 mm 4 m/S 758 mmHg 70%
    02:00 +26°C° 0 mm 4 m/S 758 mmHg 71%
    03:00 +26°C° 0 mm 3 m/S 758 mmHg 72%
    04:00 +25°C° 0 mm 3 m/S 757 mmHg 73%
    05:00 +25°C° 0 mm 3 m/S 758 mmHg 74%
    06:00 +25°C° 0 mm 3 m/S 758 mmHg 74%
    07:00 +25°C° 0 mm 4 m/S 759 mmHg 75%
    08:00 +27°C° 0 mm 4 m/S 759 mmHg 70%
    09:00 +29°C° 0 mm 5 m/S 759 mmHg 64%
    10:00 +32°C° 0 mm 6 m/S 760 mmHg 58%
    11:00 +33°C° 0 mm 6 m/S 759 mmHg 56%
    12:00 +34°C° 0 mm 6 m/S 758 mmHg 53%
    13:00 +35°C° 0 mm 5 m/S 757 mmHg 51%
    14:00 +35°C° 0 mm 5 m/S 756 mmHg 53%
    15:00 +35°C° 0 mm 4 m/S 756 mmHg 56%
    16:00 +34°C° 0 mm 3 m/S 755 mmHg 58%
    17:00 +34°C° 0.1 mm 3 m/S 756 mmHg 60%
    18:00 +33°C° 0.1 mm 3 m/S 756 mmHg 61%
    19:00 +32°C° 0.1 mm 4 m/S 757 mmHg 63%
    20:00 +30°C° 0.2 mm 4 m/S 757 mmHg 65%
    21:00 +29°C° 0.2 mm 4 m/S 758 mmHg 66%
    22:00 +29°C° 0.2 mm 4 m/S 758 mmHg 68%
    23:00 +28°C° 0 mm 4 m/S 758 mmHg 69%

    14 Dezember, Freitag

    Zeit Temperatur Niederschläge Wind Luftdruck Luftfeuchtigkeit
    00:00 +28°C° 0 mm 4 m/S 758 mmHg 70%
    01:00 +27°C° 0 mm 4 m/S 758 mmHg 71%
    02:00 +27°C° 0 mm 4 m/S 758 mmHg 73%
    03:00 +26°C° 0 mm 3 m/S 757 mmHg 74%
    04:00 +26°C° 0 mm 3 m/S 757 mmHg 76%
    05:00 +26°C° 0 mm 3 m/S 758 mmHg 76%
    06:00 +26°C° 0 mm 3 m/S 758 mmHg 77%
    07:00 +26°C° 0 mm 3 m/S 759 mmHg 77%
    08:00 +28°C° 0 mm 4 m/S 759 mmHg 73%
    09:00 +29°C° 0 mm 5 m/S 759 mmHg 68%
    10:00 +32°C° 0 mm 6 m/S 759 mmHg 64%
    11:00 +33°C° 0 mm 6 m/S 758 mmHg 61%
    12:00 +34°C° 0 mm 6 m/S 758 mmHg 57%
    13:00 +35°C° 0 mm 5 m/S 757 mmHg 54%
    14:00 +35°C° 0 mm 5 m/S 756 mmHg 55%
    15:00 +35°C° 0 mm 4 m/S 756 mmHg 56%
    16:00 +34°C° 0 mm 3 m/S 755 mmHg 57%
    17:00 +33°C° 0 mm 4 m/S 756 mmHg 59%
    18:00 +32°C° 0 mm 4 m/S 757 mmHg 61%
    19:00 +30°C° 0 mm 4 m/S 757 mmHg 63%
    20:00 +30°C° 0 mm 4 m/S 758 mmHg 63%
    21:00 +29°C° 0 mm 5 m/S 758 mmHg 64%
    22:00 +29°C° 0 mm 5 m/S 758 mmHg 64%
    23:00 +28°C° 0 mm 5 m/S 758 mmHg 65%

    15 Dezember, Samstag

    Zeit Temperatur Niederschläge Wind Luftdruck Luftfeuchtigkeit
    00:00 +28°C° 0 mm 4 m/S 758 mmHg 67%
    01:00 +27°C° 0 mm 4 m/S 757 mmHg 68%
    02:00 +27°C° 0 mm 4 m/S 757 mmHg 68%
    03:00 +27°C° 0 mm 4 m/S 757 mmHg 69%
    04:00 +27°C° 0 mm 4 m/S 757 mmHg 70%
    05:00 +27°C° 0 mm 4 m/S 757 mmHg 72%
    06:00 +27°C° 0 mm 4 m/S 758 mmHg 73%
    07:00 +27°C° 0 mm 4 m/S 758 mmHg 75%
    08:00 +28°C° 0 mm 5 m/S 759 mmHg 70%
    09:00 +30°C° 0 mm 6 m/S 759 mmHg 66%
    10:00 +32°C° 0 mm 6 m/S 759 mmHg 62%
    11:00 +33°C° 0 mm 6 m/S 758 mmHg 59%
    12:00 +34°C° 0 mm 6 m/S 757 mmHg 56%
    13:00 +35°C° 0 mm 6 m/S 756 mmHg 53%
    14:00 +35°C° 0.3 mm 5 m/S 756 mmHg 56%
    15:00 +34°C° 0.3 mm 5 m/S 755 mmHg 59%
    16:00 +34°C° 0.3 mm 4 m/S 755 mmHg 62%
    17:00 +33°C° 0.4 mm 4 m/S 756 mmHg 65%
    18:00 +32°C° 0.4 mm 4 m/S 756 mmHg 68%
    19:00 +29°C° 0.4 mm 4 m/S 757 mmHg 71%
    20:00 +29°C° 0.5 mm 4 m/S 757 mmHg 73%
    21:00 +28°C° 0.5 mm 3 m/S 758 mmHg 76%
    22:00 +28°C° 0.5 mm 3 m/S 758 mmHg 78%
    23:00 +27°C° 0.4 mm 3 m/S 758 mmHg 80%

    16 Dezember, Sonntag

    Zeit Temperatur Niederschläge Wind Luftdruck Luftfeuchtigkeit
    00:00 +27°C° 0.4 mm 3 m/S 758 mmHg 81%
    01:00 +27°C° 0.4 mm 3 m/S 758 mmHg 83%
    02:00 +26°C° 0.1 mm 3 m/S 758 mmHg 83%
    03:00 +26°C° 0.1 mm 2 m/S 757 mmHg 83%
    04:00 +26°C° 0.1 mm 2 m/S 757 mmHg 84%
    05:00 +26°C° 0 mm 3 m/S 758 mmHg 83%
    06:00 +26°C° 0 mm 3 m/S 758 mmHg 83%
    07:00 +26°C° 0 mm 3 m/S 759 mmHg 82%
    08:00 +28°C° 0 mm 4 m/S 759 mmHg 75%
    09:00 +30°C° 0 mm 5 m/S 759 mmHg 68%
    10:00 +33°C° 0 mm 6 m/S 759 mmHg 61%
    11:00 +34°C° 0 mm 5 m/S 758 mmHg 59%
    12:00 +35°C° 0 mm 5 m/S 757 mmHg 56%
    13:00 +35°C° 0 mm 5 m/S 757 mmHg 53%
    14:00 +35°C° 0.2 mm 5 m/S 756 mmHg 54%
    15:00 +35°C° 0.2 mm 4 m/S 756 mmHg 55%
    16:00 +35°C° 0.2 mm 4 m/S 756 mmHg 56%
    17:00 +34°C° 0.1 mm 3 m/S 756 mmHg 58%
    18:00 +33°C° 0.1 mm 3 m/S 757 mmHg 61%
    19:00 +31°C° 0.1 mm 3 m/S 757 mmHg 63%
    20:00 +30°C° 0 mm 3 m/S 757 mmHg 64%
    21:00 +29°C° 0 mm 3 m/S 758 mmHg 64%
    22:00 +29°C° 0 mm 4 m/S 758 mmHg 65%
    23:00 +28°C° 0 mm 4 m/S 758 mmHg 66%
    Mehr zeigen